STARLINK-35057, 65525

Orbit data source: Space-Track

STARLINK-35057, 65525 is a payload satellite owned by SpaceX/Seattle (US) in SSO that was launched on Sat, 06 Sep 2025 UTC via an FALCON 9 launch vehicle from the Air Force Eastern Test Range (AFETR). Payload-class satellites include a variety of spacecraft equipped with specific instruments for various scientific and technological missions. These include communications satellites like Starlink; space stations such as the ISS; scientific satellites like the Hubble; Earth observation satellites from companies like Planet Labs, Umbra, and HawkEye 360; GPS; miniature CubeSats for education and research; and military/defense satellites.

Loading next visibility...
Identifier
65525, 2025-200F
Orbit
SSO
Country
Flag of USUS
Related business
Manufacturer
SpaceX/Seattle
Mission
Operational Commercial Communications
Bus & Motor
STARLINK V2MO, Unknown motor
Mass
575 kg wet, ~530 kg dry
Launch date (UTC)
2025-09-06 (9 months ago)
Launch vehicle
FALCON 9
Launch site
Air Force Eastern Test Range (AFETR)
Object type
Payload
Rocket body
Debris
Shape & HBR
Box + 2 Pan, 17.7 m
Radar Cross Section
36.964 m², Large (>1 m²)

Expand to show TLE details & history
Last TLE update: 1 day ago

TLE from 1 day ago
0 STARLINK-35057
1 65525U 25200F   26170.75422116 -.00004875  00000-0 -33418-3 0  9994
2 65525  97.3427 239.2591 0001686 151.6737 208.4583 15.05642935 44489
Epoch: 2026-06-19T18:06Z
TLE epoch observation values (Epoch: 2026-06-19T18:06:04.708Z)
Latitude
0.00005°
Longitude
59.76082°
Altitude
553.633 km
Speed
7.584 km/s
True Right ascension
15h 57m 02s
True Declination
0° 00' 00"
Sunlit
Object was in full shadow at epoch
Visualization orbit readout
Latitude
Unknown
Longitude
Unknown
Altitude
Unknown
Speed
Unknown
Apparent Right ascension
Unknown
Apparent Declination
Unknown
Sunlit
N/A
Visualization observer readout
Local Sidereal Time
07:13:40
Azimuth
Unknown
Elevation
Unknown
Doppler factor
Unknown
Orbital elements
Apogee altitude
547.683 km
Perigee altitude
545.348 km
Semi-major axis
6,924.652 km
Eccentricity
0.00017
Inclination
97.3427°
RAAN
239.2591°
Arg. of periapsis
151.6737°
True anomaly
208.4491°
Mean anomaly
208.4583°
Eccentric anomaly
208.4537°
Mean motion
3.76657 °/min
Orbital period
95.58 mins
BSTAR
-0.00033418
Loading maneuver chart data...
Computing Atmospheric mass density...
Loading historical data...
Loading historical data...
Loading historical data...
Loading historical data...
Loading historical data...
Loading historical data...
Loading historical data...

Documentation

Showing up to 5 results
|